Regional Weather Roundup
Issued by NWS Charleston, SC

Current Version | Previous Version | Text Only | Print | Product List | Glossary Off
Versions: 1 2 3 4 5 6 7 8 9 10 11 12 13 14 15 16 17 18 19 20 21 22 23 24 25 26 27 28 29 30 31 32 33 34 35 36 37 38 39 40 41 42 43 44 45 46 47 48 49 50

000
ASUS42 KCHS 240927
RWRCHS

REGIONAL WEATHER ROUNDUP
NATIONAL WEATHER SERVICE CHARLESTON SC
400 AM EST FRI NOV 24 2017

NOTE: "FAIR" INDICATES FEW OR NO CLOUDS BELOW 12,000 FEET WITH NO
SIGNIFICANT WEATHER AND/OR OBSTRUCTIONS TO VISIBILITY.

NOT ALL STATIONS ARE QUALITY CONTROLLED. USE DATA WITH CAUTION...
ESPECIALLY DEWPOINT OBSERVATIONS.

SCZ027-030-031-034>040-042>050-241000-
...SOUTHEAST SOUTH CAROLINA...

CITY           SKY/WX    TMP DP  RH WIND       PRES   REMARKS
N CHARLESTON   PTCLDY    44  42  93 N8        29.97S
WATERFRONT PRK   N/A     47  45  93 N13       29.81F
JOHNS ISLAND   CLOUDY    46  45  93 N8G15     29.96S
PINOPOLIS        N/A     45  43  93 NE12      29.92F
MONCKS CORNER  FAIR      43  39  87 N5        29.99S
SUMMERVILLE    FAIR      41  37  87 N6        30.00S
BEAUFORT MCAS  CLOUDY    47  43  86 N12       29.97S
BEAUFORT ARPT  CLOUDY    45  43  93 N8        29.96S FOG
HILTON HEAD IS MOCLDY    48  43  81 N10       29.97R
WALTERBORO     SUNNY     41  37  87 N7        30.00S
ALLENDALE      FAIR      41  36  81 N5        30.00S

...SOUTHERN MIDLANDS AND PEE DEE...

CITY           SKY/WX    TMP DP  RH WIND       PRES   REMARKS
GEORGETOWN     CLOUDY    43  43 100 N8        29.99F
KINGSTREE      FAIR      37  36  93 N6        30.02F WCI  33
ORANGEBURG     CLEAR     38  34  85 N3        30.02S
BARNWELL         N/A     39  36  87 N5        30.02R WCI  36
AIKEN          FAIR      34  32  93 NE3       30.05F
MANNING        FAIR      37  36  93 MISG      30.02S
COLUMBIA       CLEAR     33  30  88 CALM      30.04S
SUMTER         CLEAR     34  30  86 N6        30.01F WCI  29
FLORENCE       CLEAR     36  33  89 NE5       30.04S WCI  32
MYRTLE BEACH   PTCLDY    43  40  89 N10       30.00F
N MYRTLE BEACH CLOUDY    43  40  89 N9        29.99F

$$

GAZ063-065-086>088-099>101-113>116-118-119-134>141-150-241000-
...SOUTHEAST GEORGIA...

CITY           SKY/WX    TMP DP  RH WIND       PRES   REMARKS
SAVANNAH ARPT  CLOUDY    45  41  86 N9        29.96S
HUNTER AAF     CLOUDY    47  42  83 N5        29.93S
FORT STEWART   CLOUDY    46  40  81 N8        29.94S
STATESBORO     CLEAR     40  35  80 N3        30.00R
SYLVANIA       MOSUNNY   41  38  89 N7        30.00F
CLAXTON        FAIR      44  40  85 CALM      29.99S

...CSRA...CENTRAL AND FAR SOUTHEAST GEORGIA...

CITY           SKY/WX    TMP DP  RH WIND       PRES   REMARKS
THOMSON        CLEAR     32  30  93 CALM      30.09R
AUGUSTA-BUSH   CLEAR     36  34  92 N3        30.03S
AUGUSTA-DANIEL CLEAR     41  34  76 N8        30.03S
SWAINSBORO     FAIR      41  36  81 NE5       30.01S
VIDALIA        CLEAR     43  39  87 N5        29.99S
EASTMAN        FAIR      43  33  67 N3        30.03S
HAZLEHURST     FAIR      44  40  86 N5        29.98S
ALMA           CLEAR     46  42  86 N6        29.96S
WAYCROSS       CLEAR     47  44  90 NE5       29.96R
JESUP          CLOUDY    48  43  81 CALM      29.96R
BAXLEY         FAIR      43  43 100 N7        29.97S
BRUNSWICK      CLEAR     46  45  93 NW7       29.93S
SAINT SIMONS   CLOUDY    50  48  93 N9        29.91R

$$

SCZ027-028-034-036>038-045-046-048>050-GAZ119-141-241000-
...LAKE AND SUPPLEMENTAL COASTAL OBSERVATIONS...

STATION/POSITION TIME  TEMP    WIND        PRES    WAVE   SWELL
                       AIR SEA DIR/SP/G            HT/PER HT/PER/DIR
                 (UTC) (F)     (DEG/KT/KT) (MB)    (FT/S) (FT/S/D)
WINYAH BAY       0830   45     360/  6     1015.0S
LAKE MURRAY      0850   38      CALM  /  2 1016.6S
ACE BASIN NERRS  0845   44     360/  4     1014.0F
FORT PULASKI     0900   48 60  360/ 12/ 15 1014.4
SAPELO ISLAND    0900   50     360/ 10     1013.0

$$

ANZ835-935-AMZ111-154-330-350-352-354-370-450-454-472-241000-
...C-MAN AND BUOY OBSERVATIONS...

STATION/POSITION TIME  TEMP    WIND        PRES    WAVE   SWELL
                       AIR SEA DIR/SP/G            HT/PER HT/PER/DIR
                 (UTC) (F)     (DEG/KT/KT) (MB)    (FT/S) (FT/S/D)
BUOY 41004       0910   64 74   30/ 23/ 29 1012.1
BUOY 41008       0850   58 66   30/ 21/ 25 1012.0R   6/ 6   3/120/ 9
FOLLY BEACH CMAN 0900   48     360/ 13/ 15 1014.8R
CAPERS NEARSHORE 0808   48 61   20/ 17/ 23 1013.7F
FRIPP NEARSHORE  0908   48 61  350/ 14/ 29 1014.6R


STATION/POSITION TIME  TEMP    WIND        PRES    WAVE   SWELL
                       AIR SEA DIR/SP/G            HT/PER HT/PER/DIR
                 (UTC) (F)     (DEG/KT/KT) (MB)    (FT/S) (FT/S/D)
5E ST. MARYS GA  0900      66                N/A     6/ 6
FRYING PAN BUOY  0910   61 72   20/ 21/ 27 1013.6
BUOY 41025       0910   58 72   20/ 17/ 21 1016.0
CAPE LOOKOUT NC  0900           10/ 11/ 14 1016.4F
BUOY 41002       0850   71 76   50/ 25/ 29 1008.7F  10/ 8   2/ 70/15
BUOY 41010       NOT AVBL
ST AUGUSTINE FL  0900   63 67  360/ 28/ 30 1010.3F


$$



USA.gov is the U.S. government's official web portal to all federal, state and local government web resources and services.